Погода в Гвасюгах

Россия / Хабаровский край     47°40′10″N   136°10′51″E
темп.,
°C
ветер,
м/с
пор.,
м/с
влажн.,
%
обл.,
%
осадки,
мм/ч
давл.,
гПа
погр.,
м
12 апреля, пн
пн1201:00+5вюв1183100 0.1 102010
04:00+5ююз2286100 0.8 101968
07:00+5ю31080100 0.0 1018529
10:00+7юз41284100 0.9 10181038
13:00+14юз61352100 0.1 10132305
16:00+16юз6153841 0.1 10102670
19:00+13юз7154969 0.1 10091477
22:00+10ююз61555100 0.1 10091177
13 апреля, вт
вт1301:00+9ююз61457100 0.0 10081228
04:00+8ююз41259100 0.1 10051247
07:00+7юз51256100 0.1 10031285
10:00+5юз3782100 1.7 1001845
13:00+3зсз2397100 2.9 999533
16:00−1з5891100 7.3 1002827
19:00−3зюз51295100 2.9 1003883
22:00−5з512724 3.8 10051116
14 апреля, ср
ср1401:00−7зюз51184100 0.1 10041035
04:00−7зюз61290100 0.9 10041138
07:00−7зюз61381100 0.4 10051260
10:00−4з71167100 0.7 10061884
13:00−2з71052100 0.2 10062446
16:00−2з61060100 0.4 10071982
19:00−3з486199 0.3 1009999
22:00−8ю119258 0.3 101212
15 апреля, чт
чт1501:00−9ююв1195100 0.0 101321
04:00−9ю119735 0.0 101420
07:00−8ю12876 0.0 101669
10:00−1зюз35505 0.0 10161401
13:00+2з34437 0.0 10161537
16:00+4зюз23380 0.0 10151448
19:00+1в116112 0.0 101510
22:00−4в2279100 0.0 101624
16 апреля, пт
пт1601:00−3в2279100 0.0 101534
04:00−1в2275100 0.0 101350
07:000в227596 0.0 101269
10:00+6вюв2453100 0.0 1010351
13:00+9ю41054100 0.1 10081865
16:00+10ююв6115794 0.6 10061998
19:00+2ююв2896100 3.6 1012513
22:00+1вюв129997 3.7 1014112